Regional Weather Roundup
Issued by NWS

Home | Current Version | Previous Version | Graphics & Text | Print | Product List | Glossary On
Versions: 1 2 3 4 5 6 7 8 9 10 11 12 13 14 15 16 17 18 19 20 21 22 23 24 25 26 27 28 29 30 31 32 33 34 35 36 37 38 39 40 41 42 43 44 45 46 47 48 49 50
000
ASUS43 KDMX 031107
RWRIA

WEATHER ROUNDUP FOR IOWA
NATIONAL WEATHER SERVICE DES MOINES IA
600 AM CDT MON AUG 03 2015

NOTE: "FAIR" INDICATES FEW OR NO CLOUDS BELOW 12,000 FEET WITH NO
SIGNIFICANT WEATHER AND/OR OBSTRUCTIONS TO VISIBILITY.

* - THESE STATIONS ARE NOT NWS STATIONS...THUS NOT UNDER NWS
QUALITY CONTROL.  THEY ALSO DO NOT REPORT WEATHER SUCH
AS PRECIPITATION OR FOG.

IAZ001>003-012>014-020>022-031>034-043>046-031200-
   NORTHWEST IOWA

CITY           SKY/WX    TMP DP  RH WIND       PRES   REMARKS
CARROLL *      CLEAR     61  59  94 CALM      29.95F
CHEROKEE *     CLEAR     57  57 100 CALM      29.97R
DENISON *      CLEAR     63  61  94 N3        29.95R
LE MARS *      CLEAR     57  57 100 CALM      29.99R
ORANGE CITY *  CLEAR     57  54  88 CALM      29.98R
SHELDON *      CLEAR     54  52  94 SW5       29.96R
SPENCER        CLEAR     54  51  90 SW6       29.96R
STORM LAKE *   CLEAR     57  55  94 CALM      29.99R
$$

IAZ055>058-069>071-079>083-090>094-031200-
   SOUTHWEST IOWA

CITY           SKY/WX    TMP DP  RH WIND       PRES   REMARKS
ATLANTIC *     CLOUDY    64  63  94 CALM      29.95R
AUDUBON *      CLEAR     63  59  88 CALM      29.96S
CLARINDA *     CLOUDY    70  66  88 NE3       29.94S
COUNCIL BLFS * PTCLDY    66  63  88 NE7       29.95S
CRESTON *      CLOUDY    68  63  83 NE9       29.95S
HARLAN  *      PTCLDY    64  64 100 N5        29.98S
LAMONI         LGT RAIN  67  63  87 CALM      29.92R
RED OAK *      CLOUDY    68  66  94 NE7       29.93S
SHENANDOAH *   CLOUDY    70  64  83 NE6       29.93R
$$

IAZ047>049-059>061-072>074-084-031200-
   CENTRAL IOWA

CITY           SKY/WX    TMP DP  RH WIND       PRES   REMARKS
AMES           CLEAR     61  57  87 N6        29.93R
ANKENY *       MOCLDY    66  59  77 N7        29.92S
CHARITON *     CLOUDY    66  63  88 NW6       29.92R
DES MOINES     PTCLDY    69  57  65 N5        29.92R
GRINNELL*      CLEAR     59  55  88 NW6       29.91S
KNOXVILLE *    PTCLDY    66  59  77 N5        29.91R
MARSHALLTOWN   CLEAR     60  56  86 N9        29.91R
PELLA *        CLEAR     63  63 100 CALM      29.93R
PERRY *          N/A     63  61  94 NW3       29.94S
$$

IAZ004>006-015-016-023>025-035-036-031200-
   NORTH CENTRAL IOWA

CITY           SKY/WX    TMP DP  RH WIND       PRES   REMARKS
ALGONA *       CLEAR     55  54  94 SW5       29.95R
CLARION *      CLEAR     52  52 100 CALM      29.94S
ESTHERVILLE    CLEAR     52  51  97 W8        29.94S
FORT DODGE *   CLEAR     55  54  94 CALM      29.96R
MASON CITY     CLEAR     56  53  90 W6        29.94R
FOREST CITY *  CLEAR     52  52 100 CALM      29.93R
IOWA FALLS *     N/A     57  55  92 W5        29.94S
$$

IAZ007>011-017>019-026>030-037>042-050>054-066-031200-
   NORTHEAST IOWA

CITY           SKY/WX    TMP DP  RH WIND       PRES   REMARKS
CEDAR RAPIDS   CLEAR     61  59  93 N6        29.89R
CHARLES CITY * CLEAR     54  54 100 W3        29.92R
CLINTON *      CLEAR     61  59  94 NW7       29.87R
DECORAH *      CLEAR     57  55  94 CALM      29.89R
DUBUQUE        CLEAR     62  57  83 CALM      29.88R
MONTICELLO *   CLEAR     59  57  94 CALM      29.89R
OELWEIN *      CLEAR     57  55  94 NW5       29.91R
WATERLOO       CLEAR     57  54  89 W3        29.90R
$$

IAZ064-065-067-068-078-031200-
   EAST CENTRAL IOWA

CITY           SKY/WX    TMP DP  RH WIND       PRES   REMARKS
DAVENPORT      PTCLDY    63  61  93 NW5       29.86R
IOWA CITY      CLEAR     66  59  78 NW3       29.89R
MT. PLEASANT * CLEAR     68  59  73 NW5       29.88S
MUSCATINE *    PTCLDY    66  61  82 NW8       29.86S
QUAD CITIES    CLEAR     68  61  78 NW7       29.85R
$$

IAZ062-063-075>077-085>089-095>099-031200-
   SOUTHEAST IOWA

CITY           SKY/WX    TMP DP  RH WIND       PRES   REMARKS
BURLINGTON     CLEAR     66  64  93 N7        29.85S
FAIRFIELD *    MOCLDY    64  61  88 NW7       29.89R
FORT MADISON * CLEAR     64  63  94 NW6       29.87S
KEOKUK *       CLEAR     68  63  83 N6        29.86R
OSKALOOSA *    CLOUDY    64  61  88 CALM      29.91R
CENTERVILLE *  CLEAR     64  63  94 NW5       29.93R
OTTUMWA        MOCLDY    65  61  87 N7        29.88R
WASHINGTON *   PTCLDY    64  61  88 NW8       29.90R
$$

ABBREVIATIONS USED IN REMARKS
   TC - TEMPERATURES IN CELSIUS
  WCI - WIND CHILL INDEX
   HX - HEAT INDEX
  VSB - VISIBILITY
$$



USA.gov is the U.S. government's official web portal to all federal, state and local government web resources and services.